| time (UTC) | temp F | wind direction | speed MPH | gust MPH | rain 1hr in | rain 24hr in | rain mn in | humidity % | barometer mb |
| 20260906131941 | 55 | 292 | 5.0 | 11.0 | 0.00 | 0.01 | 0.00 | 51 | 1022.6 |
| 20260906131840 | 55 | 12 | 0.0 | 11.0 | 0.00 | 0.01 | 0.00 | 51 | 1022.6 |
| 20260906131340 | 54 | 262 | 0.0 | 8.0 | 0.00 | 0.01 | 0.00 | 51 | 1022.6 |
| 20260906130840 | 54 | 323 | 5.0 | 6.0 | 0.00 | 0.01 | 0.00 | 49 | 1022.6 |
| 20260906130340 | 55 | 267 | 1.0 | 6.0 | 0.00 | 0.01 | 0.00 | 50 | 1022.6 |
| 20260906125840 | 54 | 270 | 2.0 | 6.0 | 0.00 | 0.01 | 0.00 | 53 | 1022.7 |
| 20260906125741 | 54 | 336 | 0.0 | 8.0 | 0.00 | 0.01 | 0.00 | 52 | 1022.6 |
| 20260906125340 | 54 | 296 | 3.0 | 8.0 | 0.00 | 0.01 | 0.00 | 50 | 1022.7 |
| 20260906124840 | 54 | 326 | 4.0 | 9.0 | 0.00 | 0.01 | 0.00 | 50 | 1022.7 |
| 20260906124641 | 54 | 322 | 6.0 | 10.0 | 0.00 | 0.01 | 0.00 | 50 | 1022.7 |
| 20260906124340 | 54 | 315 | 7.0 | 10.0 | 0.00 | 0.01 | 0.00 | 50 | 1022.7 |
| 20260906123840 | 54 | 285 | 3.0 | 9.0 | 0.00 | 0.01 | 0.00 | 51 | 1022.6 |
| 20260906123541 | 54 | 271 | 6.0 | 6.0 | 0.00 | 0.01 | 0.00 | 52 | 1022.6 |
| 20260906123340 | 54 | 341 | 2.0 | 7.0 | 0.00 | 0.01 | 0.00 | 52 | 1022.6 |
| 20260906122840 | 54 | 324 | 6.0 | 6.0 | 0.00 | 0.01 | 0.00 | 51 | 1022.6 |
| 20260906122441 | 54 | 307 | 0.0 | 7.0 | 0.00 | 0.01 | 0.00 | 51 | 1022.6 |
| 20260906122340 | 54 | 307 | 0.0 | 7.0 | 0.00 | 0.01 | 0.00 | 51 | 1022.6 |
| 20260906121840 | 54 | 274 | 0.0 | 7.0 | 0.00 | 0.01 | 0.00 | 51 | 1022.6 |
| 20260906121340 | 54 | 303 | 1.0 | 9.0 | 0.00 | 0.01 | 0.00 | 52 | 1022.6 |
| 20260906120840 | 53 | 178 | 1.0 | 9.0 | 0.00 | 0.01 | 0.00 | 54 | 1022.6 |
| 20260906120340 | 53 | 330 | 1.0 | 5.0 | 0.00 | 0.01 | 0.00 | 55 | 1022.7 |
| 20260906120241 | 53 | 329 | 1.0 | 5.0 | 0.00 | 0.01 | 0.00 | 55 | 1022.7 |
| 20260906115840 | 53 | 329 | 4.0 | 7.0 | 0.00 | 0.01 | 0.00 | 53 | 1022.7 |
| 20260906115340 | 53 | 330 | 1.0 | 8.0 | 0.00 | 0.01 | 0.00 | 55 | 1022.6 |
| 20260906115141 | 53 | 313 | 1.0 | 11.0 | 0.00 | 0.01 | 0.00 | 55 | 1022.6 |
| 20260906114840 | 53 | 293 | 8.0 | 11.0 | 0.00 | 0.01 | 0.00 | 53 | 1022.6 |
| 20260906114340 | 53 | 279 | 2.0 | 8.0 | 0.00 | 0.01 | 0.00 | 55 | 1022.6 |
| 20260906114041 | 53 | 285 | 0.0 | 4.0 | 0.00 | 0.01 | 0.00 | 56 | 1022.6 |
| 20260906113840 | 53 | 326 | 0.0 | 6.0 | 0.00 | 0.01 | 0.00 | 56 | 1022.7 |
| 20260906113340 | 53 | 285 | 2.0 | 7.0 | 0.00 | 0.01 | 0.00 | 55 | 1022.7 |
| 20260906112943 | 53 | 285 | 0.0 | 7.0 | 0.00 | 0.01 | 0.00 | 56 | 1022.6 |
| 20260906112840 | 52 | 336 | 1.0 | 6.0 | 0.00 | 0.01 | 0.00 | 57 | 1022.6 |
| 20260906112340 | 52 | 315 | 2.0 | 7.0 | 0.00 | 0.01 | 0.00 | 56 | 1022.4 |
| 20260906111840 | 53 | 278 | 6.0 | 6.0 | 0.00 | 0.01 | 0.00 | 53 | 1022.3 |
| 20260906111340 | 53 | 334 | 3.0 | 6.0 | 0.00 | 0.01 | 0.00 | 58 | 1022.4 |
| 20260906110840 | 53 | 312 | 0.0 | 6.0 | 0.00 | 0.01 | 0.00 | 56 | 1022.4 |
| 20260906110741 | 53 | 319 | 1.0 | 6.0 | 0.00 | 0.01 | 0.00 | 55 | 1022.6 |
| 20260906110340 | 53 | 320 | 0.0 | 5.0 | 0.00 | 0.01 | 0.00 | 55 | 1022.4 |
| 20260906105840 | 53 | 299 | 4.0 | 7.0 | 0.00 | 0.01 | 0.00 | 54 | 1022.4 |
| 20260906105641 | 53 | 286 | 2.0 | 5.0 | 0.00 | 0.01 | 0.00 | 57 | 1022.4 |
| 20260906105340 | 53 | 322 | 0.0 | 7.0 | 0.00 | 0.01 | 0.00 | 55 | 1022.4 |
| 20260906104840 | 53 | 323 | 2.0 | 8.0 | 0.00 | 0.01 | 0.00 | 55 | 1022.4 |
| 20260906104541 | 53 | 300 | 3.0 | 8.0 | 0.00 | 0.01 | 0.00 | 54 | 1022.4 |
| 20260906104340 | 53 | 286 | 3.0 | 8.0 | 0.00 | 0.01 | 0.00 | 56 | 1022.4 |
| 20260906103840 | 54 | 305 | 0.0 | 9.0 | 0.00 | 0.01 | 0.00 | 55 | 1022.4 |
| 20260906103441 | 54 | 312 | 0.0 | 6.0 | 0.00 | 0.01 | 0.00 | 57 | 1022.4 |
| 20260906103340 | 54 | 312 | 0.0 | 6.0 | 0.00 | 0.01 | 0.00 | 56 | 1022.4 |
| 20260906102840 | 53 | 293 | 0.0 | 2.0 | 0.00 | 0.01 | 0.00 | 56 | 1022.4 |
| 20260906102340 | 53 | 127 | 0.0 | 5.0 | 0.00 | 0.01 | 0.00 | 57 | 1022.4 |
| 20260906101840 | 53 | 357 | 0.0 | 7.0 | 0.00 | 0.01 | 0.00 | 59 | 1022.4 |
| 20260906101340 | 53 | 298 | 3.0 | 8.0 | 0.00 | 0.01 | 0.00 | 58 | 1022.6 |
| 20260906101241 | 53 | 313 | 0.0 | 8.0 | 0.00 | 0.01 | 0.00 | 57 | 1022.6 |
| 20260906100840 | 53 | 323 | 4.0 | 5.0 | 0.00 | 0.01 | 0.00 | 59 | 1022.4 |
| 20260906100340 | 52 | 309 | 0.0 | 6.0 | 0.00 | 0.01 | 0.00 | 58 | 1022.4 |
| 20260906100141 | 52 | 292 | 0.0 | 7.0 | 0.00 | 0.01 | 0.00 | 58 | 1022.4 |
| 20260906095840 | 52 | 315 | 2.0 | 7.0 | 0.00 | 0.01 | 0.00 | 57 | 1022.6 |
| 20260906095340 | 52 | 317 | 2.0 | 9.0 | 0.00 | 0.01 | 0.00 | 58 | 1022.4 |
| 20260906095041 | 52 | 246 | 1.0 | 6.0 | 0.00 | 0.01 | 0.00 | 61 | 1022.4 |
| 20260906094840 | 51 | 327 | 3.0 | 6.0 | 0.00 | 0.01 | 0.00 | 60 | 1022.4 |
| 20260906094340 | 51 | 291 | 3.0 | 7.0 | 0.00 | 0.01 | 0.00 | 61 | 1022.6 |
| 20260906093941 | 51 | 303 | 1.0 | 7.0 | 0.00 | 0.01 | 0.00 | 61 | 1022.4 |
| 20260906093840 | 51 | 291 | 0.0 | 6.0 | 0.00 | 0.01 | 0.00 | 62 | 1022.4 |
| 20260906093340 | 50 | 288 | 0.0 | 5.0 | 0.00 | 0.01 | 0.00 | 64 | 1022.3 |
| 20260906092840 | 50 | 306 | 2.0 | 5.0 | 0.00 | 0.01 | 0.00 | 63 | 1022.3 |
| 20260906092340 | 49 | 272 | 0.0 | 2.0 | 0.00 | 0.01 | 0.00 | 64 | 1022.4 |
| 20260906091840 | 49 | 255 | 0.0 | 8.0 | 0.00 | 0.01 | 0.00 | 63 | 1022.3 |
| 20260906091741 | 49 | 275 | 0.0 | 8.0 | 0.00 | 0.01 | 0.00 | 64 | 1022.2 |
| 20260906091340 | 48 | 255 | 0.0 | 11.0 | 0.00 | 0.01 | 0.00 | 65 | 1022.3 |
| 20260906090840 | 48 | 296 | 4.0 | 8.0 | 0.00 | 0.01 | 0.00 | 65 | 1022.2 |
| 20260906090641 | 48 | 300 | 2.0 | 10.0 | 0.00 | 0.01 | 0.00 | 64 | 1022.2 |
| 20260906090340 | 48 | 305 | 4.0 | 10.0 | 0.00 | 0.01 | 0.00 | 64 | 1022.2 |
| 20260906085840 | 48 | 317 | 5.0 | 9.0 | 0.00 | 0.01 | 0.00 | 64 | 1022.2 |
| 20260906085541 | 48 | 319 | 1.0 | 10.0 | 0.00 | 0.01 | 0.00 | 64 | 1022.3 |
| 20260906085340 | 48 | 336 | 3.0 | 10.0 | 0.00 | 0.01 | 0.00 | 64 | 1022.3 |
| 20260906084840 | 48 | 312 | 1.0 | 8.0 | 0.00 | 0.01 | 0.00 | 65 | 1022.2 |
| 20260906084441 | 48 | 319 | 4.0 | 6.0 | 0.00 | 0.01 | 0.00 | 64 | 1022.1 |
| 20260906084340 | 48 | 305 | 4.0 | 9.0 | 0.00 | 0.01 | 0.00 | 64 | 1022.1 |
| 20260906083840 | 48 | 313 | 2.0 | 8.0 | 0.00 | 0.01 | 0.00 | 65 | 1022.1 |
| 20260906083340 | 48 | 268 | 2.0 | 9.0 | 0.00 | 0.01 | 0.00 | 65 | 1022.1 |
| 20260906082840 | 48 | 284 | 1.0 | 8.0 | 0.00 | 0.01 | 0.00 | 67 | 1022.1 |
| 20260906082340 | 48 | 317 | 1.0 | 8.0 | 0.00 | 0.01 | 0.00 | 68 | 1022.1 |
| 20260906082241 | 48 | 309 | 3.0 | 10.0 | 0.00 | 0.01 | 0.00 | 68 | 1022.0 |
| 20260906081840 | 48 | 316 | 5.0 | 10.0 | 0.00 | 0.01 | 0.00 | 66 | 1022.0 |
| 20260906081340 | 47 | 315 | 0.0 | 7.0 | 0.00 | 0.01 | 0.00 | 67 | 1022.0 |
| 20260906081141 | 47 | 313 | 1.0 | 8.0 | 0.00 | 0.01 | 0.00 | 65 | 1021.9 |
| 20260906080840 | 48 | 309 | 4.0 | 8.0 | 0.00 | 0.01 | 0.00 | 66 | 1022.0 |
| 20260906080340 | 47 | 329 | 2.0 | 10.0 | 0.00 | 0.01 | 0.00 | 66 | 1021.8 |
| 20260906080041 | 47 | 315 | 9.0 | 9.0 | 0.00 | 0.01 | 0.00 | 70 | 1021.8 |
| 20260906075840 | 47 | 319 | 1.0 | 4.0 | 0.00 | 0.01 | 0.00 | 70 | 1021.9 |
| 20260906075340 | 47 | 330 | 0.0 | 6.0 | 0.00 | 0.01 | 0.00 | 70 | 1021.9 |
| 20260906074941 | 46 | 271 | 0.0 | 6.0 | 0.00 | 0.01 | 0.00 | 70 | 1022.0 |
| 20260906074840 | 46 | 319 | 2.0 | 6.0 | 0.00 | 0.01 | 0.00 | 71 | 1022.0 |
| 20260906074340 | 46 | 319 | 0.0 | 7.0 | 0.00 | 0.01 | 0.00 | 73 | 1021.9 |
| 20260906073840 | 45 | 347 | 0.0 | 8.0 | 0.00 | 0.01 | 0.00 | 73 | 1021.9 |
| 20260906073340 | 45 | 323 | 3.0 | 7.0 | 0.00 | 0.01 | 0.00 | 75 | 1021.9 |
| 20260906072840 | 45 | 310 | 2.0 | 7.0 | 0.00 | 0.01 | 0.00 | 75 | 1021.9 |
| 20260906072741 | 45 | 292 | 1.0 | 7.0 | 0.00 | 0.01 | 0.00 | 75 | 1021.9 |
| 20260906072340 | 45 | 302 | 2.0 | 6.0 | 0.00 | 0.01 | 0.00 | 75 | 1021.9 |
| 20260906071840 | 45 | 258 | 1.0 | 6.0 | 0.00 | 0.01 | 0.00 | 76 | 1021.8 |
| 20260906071641 | 44 | 302 | 1.0 | 5.0 | 0.00 | 0.01 | 0.00 | 76 | 1021.8 |
| 20260906071340 | 44 | 317 | 0.0 | 7.0 | 0.00 | 0.01 | 0.00 | 78 | 1021.8 |
| 20260906070840 | 44 | 305 | 3.0 | 6.0 | 0.00 | 0.01 | 0.00 | 78 | 1021.5 |
| 20260906070541 | 44 | 302 | 5.0 | 6.0 | 0.00 | 0.01 | 0.00 | 80 | 1021.5 |
| 20260906070340 | 44 | 300 | 0.0 | 5.0 | 0.00 | 0.01 | 0.00 | 80 | 1021.5 |
| 20260906065840 | 43 | 344 | 2.0 | 7.0 | 0.00 | 0.01 | 0.00 | 79 | 1021.5 |
| 20260906065441 | 43 | 323 | 3.0 | 6.0 | 0.00 | 0.01 | 0.00 | 79 | 1021.4 |
| 20260906065340 | 43 | 279 | 0.0 | 6.0 | 0.00 | 0.01 | 0.00 | 80 | 1021.5 |
| 20260906064840 | 43 | 296 | 3.0 | 6.0 | 0.00 | 0.01 | 0.00 | 81 | 1021.5 |
| 20260906064340 | 43 | 293 | 1.0 | 6.0 | 0.00 | 0.01 | 0.00 | 81 | 1021.4 |
| 20260906063840 | 42 | 305 | 3.0 | 5.0 | 0.00 | 0.01 | 0.00 | 81 | 1021.3 |
| 20260906063340 | 42 | 274 | 1.0 | 7.0 | 0.00 | 0.01 | 0.00 | 82 | 1021.2 |
| 20260906063241 | 42 | 286 | 1.0 | 7.0 | 0.00 | 0.01 | 0.00 | 82 | 1021.3 |
| 20260906062840 | 42 | 323 | 2.0 | 6.0 | 0.00 | 0.01 | 0.00 | 82 | 1021.2 |
| 20260906062340 | 41 | 291 | 3.0 | 6.0 | 0.00 | 0.01 | 0.00 | 83 | 1021.2 |
| 20260906062141 | 41 | 313 | 4.0 | 6.0 | 0.00 | 0.01 | 0.00 | 84 | 1021.1 |
| 20260906061840 | 41 | 358 | 3.0 | 5.0 | 0.00 | 0.01 | 0.00 | 84 | 1021.1 |
| 20260906061340 | 41 | 299 | 1.0 | 6.0 | 0.00 | 0.01 | 0.00 | 84 | 1021.1 |
| 20260906061041 | 41 | 296 | 1.0 | 1.0 | 0.00 | 0.01 | 0.00 | 85 | 1021.1 |
| 20260906060840 | 41 | 317 | 0.0 | 0.0 | 0.00 | 0.01 | 0.00 | 85 | 1021.2 |
| 20260906060340 | 40 | 282 | 0.0 | 0.0 | 0.00 | 0.01 | 0.00 | 85 | 1021.2 |
| 20260906055941 | 41 | 282 | 0.0 | 0.0 | 0.00 | 0.01 | 0.00 | 85 | 1021.2 |
| 20260906055840 | 41 | 282 | 0.0 | 0.0 | 0.00 | 0.01 | 0.00 | 85 | 1021.1 |
| 20260906055340 | 40 | 282 | 0.0 | 0.0 | 0.00 | 0.01 | 0.00 | 85 | 1021.1 |
| 20260906054840 | 40 | 285 | 0.0 | 4.0 | 0.00 | 0.01 | 0.00 | 85 | 1021.0 |
| 20260906054340 | 40 | 341 | 2.0 | 5.0 | 0.00 | 0.01 | 0.00 | 86 | 1020.9 |
| 20260906053840 | 40 | 348 | 0.0 | 4.0 | 0.00 | 0.01 | 0.00 | 86 | 1021.0 |
| 20260906053741 | 40 | 348 | 0.0 | 4.0 | 0.00 | 0.01 | 0.00 | 86 | 1021.0 |
| 20260906053340 | 40 | 329 | 0.0 | 3.0 | 0.00 | 0.01 | 0.00 | 86 | 1021.1 |
| 20260906052840 | 40 | 284 | 0.0 | 5.0 | 0.00 | 0.01 | 0.00 | 86 | 1021.1 |
| 20260906052641 | 40 | 253 | 4.0 | 4.0 | 0.00 | 0.01 | 0.00 | 86 | 1021.0 |
| 20260906052340 | 40 | 261 | 0.0 | 0.0 | 0.00 | 0.01 | 0.00 | 86 | 1020.9 |
| 20260906051840 | 40 | 261 | 0.0 | 2.0 | 0.00 | 0.01 | 0.00 | 86 | 1020.8 |
| 20260906051542 | 40 | 261 | 0.0 | 3.0 | 0.00 | 0.01 | 0.00 | 86 | 1020.8 |
| 20260906051340 | 40 | 278 | 1.0 | 3.0 | 0.00 | 0.01 | 0.00 | 86 | 1020.8 |
| 20260906050840 | 40 | 348 | 0.0 | 2.0 | 0.00 | 0.01 | 0.00 | 85 | 1020.6 |
| 20260906050445 | 40 | 313 | 0.0 | 6.0 | 0.00 | 0.01 | 0.00 | 86 | 1020.5 |
| 20260906050340 | 41 | 303 | 0.0 | 6.0 | 0.00 | 0.01 | 0.00 | 86 | 1020.5 |
| 20260906045840 | 40 | 317 | 1.0 | 4.0 | 0.00 | 0.01 | 0.00 | 86 | 1020.5 |
| 20260906045340 | 41 | 345 | 0.0 | 1.0 | 0.00 | 0.01 | 0.00 | 86 | 1020.5 |
| 20260906044840 | 41 | 2 | 0.0 | 4.0 | 0.00 | 0.01 | 0.00 | 85 | 1020.4 |
| 20260906044340 | 41 | 313 | 0.0 | 6.0 | 0.00 | 0.01 | 0.00 | 85 | 1020.3 |
| 20260906044241 | 41 | 258 | 2.0 | 6.0 | 0.00 | 0.01 | 0.00 | 85 | 1020.3 |
| 20260906043840 | 41 | 303 | 0.0 | 4.0 | 0.00 | 0.01 | 0.00 | 85 | 1020.3 |
| 20260906043340 | 41 | 292 | 3.0 | 3.0 | 0.00 | 0.01 | 0.00 | 85 | 1020.2 |
| 20260906043141 | 42 | 289 | 1.0 | 1.0 | 0.00 | 0.01 | 0.00 | 85 | 1020.2 |
| 20260906042840 | 42 | 305 | 0.0 | 2.0 | 0.00 | 0.01 | 0.00 | 86 | 1020.2 |
| 20260906042340 | 42 | 341 | 0.0 | 3.0 | 0.00 | 0.01 | 0.00 | 86 | 1020.1 |
| 20260906042041 | 42 | 277 | 0.0 | 1.0 | 0.00 | 0.01 | 0.00 | 85 | 1020.1 |
| 20260906041840 | 42 | 277 | 0.0 | 3.0 | 0.00 | 0.01 | 0.00 | 85 | 1020.0 |
| 20260906041340 | 42 | 293 | 2.0 | 4.0 | 0.00 | 0.01 | 0.00 | 86 | 1020.0 |
| 20260906040942 | 42 | 343 | 0.0 | 4.0 | 0.00 | 0.01 | 0.00 | 86 | 1020.0 |
| 20260906040841 | 42 | 42 | 2.0 | 6.0 | 0.00 | 0.01 | 0.00 | 86 | 1020.0 |
| 20260906040340 | 42 | 292 | 1.0 | 5.0 | 0.00 | 0.01 | 0.00 | 87 | 1020.1 |
| 20260906035840 | 42 | 300 | 5.0 | 5.0 | 0.00 | 0.01 | 0.00 | 88 | 1020.0 |
| 20260906035340 | 42 | 240 | 0.0 | 7.0 | 0.00 | 0.01 | 0.00 | 88 | 1020.1 |
| 20260906034840 | 42 | 289 | 4.0 | 6.0 | 0.00 | 0.01 | 0.00 | 89 | 1020.2 |
| 20260906034741 | 42 | 303 | 1.0 | 2.0 | 0.00 | 0.01 | 0.00 | 90 | 1020.1 |
| 20260906034340 | 42 | 208 | 0.0 | 4.0 | 0.00 | 0.01 | 0.00 | 90 | 1020.2 |
| 20260906033840 | 41 | 4 | 0.0 | 0.0 | 0.00 | 0.01 | 0.00 | 91 | 1020.2 |
| 20260906033642 | 41 | 4 | 0.0 | 0.0 | 0.00 | 0.01 | 0.00 | 92 | 1020.3 |
| 20260906033340 | 41 | 4 | 0.0 | 0.0 | 0.00 | 0.01 | 0.00 | 92 | 1020.2 |
| 20260906032840 | 41 | 4 | 0.0 | 1.0 | 0.00 | 0.01 | 0.00 | 93 | 1020.2 |
| 20260906032542 | 40 | 4 | 0.0 | 2.0 | 0.00 | 0.01 | 0.00 | 94 | 1020.2 |
| 20260906032341 | 40 | 307 | 1.0 | 2.0 | 0.00 | 0.01 | 0.00 | 94 | 1020.2 |
| 20260906031841 | 39 | 292 | 1.0 | 4.0 | 0.00 | 0.01 | 0.00 | 95 | 1020.2 |
| 20260906031442 | 39 | 87 | 0.0 | 0.0 | 0.00 | 0.01 | 0.00 | 94 | 1020.1 |
| 20260906031341 | 39 | 87 | 0.0 | 0.0 | 0.00 | 0.01 | 0.00 | 94 | 1020.0 |
| 20260906030841 | 39 | 87 | 0.0 | 0.0 | 0.00 | 0.01 | 0.00 | 94 | 1020.0 |
| 20260906030341 | 38 | 87 | 0.0 | 1.0 | 0.00 | 0.01 | 0.00 | 94 | 1020.0 |
| 20260906025841 | 38 | 118 | 0.0 | 2.0 | 0.00 | 0.01 | 0.00 | 94 | 1019.9 |
| 20260906025341 | 38 | 109 | 2.0 | 3.0 | 0.00 | 0.01 | 0.00 | 94 | 1019.9 |
| 20260906025242 | 38 | 113 | 2.0 | 3.0 | 0.00 | 0.01 | 0.00 | 93 | 1019.8 |
| 20260906024841 | 38 | 135 | 0.0 | 0.0 | 0.00 | 0.01 | 0.00 | 93 | 1019.8 |
| 20260906024341 | 38 | 135 | 0.0 | 0.0 | 0.00 | 0.01 | 0.00 | 93 | 1019.8 |
| 20260906024142 | 38 | 135 | 0.0 | 0.0 | 0.00 | 0.01 | 0.00 | 93 | 1019.8 |
| 20260906023841 | 38 | 135 | 0.0 | 2.0 | 0.00 | 0.01 | 0.00 | 92 | 1019.8 |
| 20260906023341 | 38 | 120 | 1.0 | 1.0 | 0.00 | 0.01 | 0.00 | 92 | 1019.8 |
| 20260906023042 | 38 | 102 | 0.0 | 0.0 | 0.00 | 0.01 | 0.00 | 92 | 1019.6 |
| 20260906022841 | 38 | 102 | 0.0 | 0.0 | 0.00 | 0.01 | 0.00 | 92 | 1019.6 |
| 20260906022341 | 38 | 102 | 0.0 | 0.0 | 0.00 | 0.01 | 0.00 | 91 | 1019.6 |
| 20260906021944 | 38 | 102 | 0.0 | 2.0 | 0.00 | 0.01 | 0.00 | 91 | 1019.5 |
| 20260906021841 | 38 | 102 | 0.0 | 2.0 | 0.00 | 0.01 | 0.00 | 91 | 1019.6 |
| 20260906021341 | 38 | 115 | 1.0 | 2.0 | 0.00 | 0.01 | 0.00 | 91 | 1019.5 |
| 20260906020841 | 38 | 129 | 1.0 | 2.0 | 0.00 | 0.01 | 0.00 | 91 | 1019.5 |
| 20260906020341 | 38 | 281 | 0.0 | 0.0 | 0.00 | 0.01 | 0.00 | 91 | 1019.5 |
| 20260906015841 | 38 | 281 | 0.0 | 0.0 | 0.00 | 0.01 | 0.00 | 91 | 1019.5 |
| 20260906015742 | 38 | 281 | 0.0 | 0.0 | 0.00 | 0.01 | 0.00 | 91 | 1019.4 |
| 20260906015341 | 38 | 281 | 0.0 | 0.0 | 0.00 | 0.01 | 0.00 | 90 | 1019.3 |
| 20260906014841 | 39 | 281 | 0.0 | 0.0 | 0.00 | 0.01 | 0.00 | 90 | 1019.3 |
| 20260906014642 | 39 | 281 | 0.0 | 0.0 | 0.00 | 0.01 | 0.00 | 90 | 1019.3 |
| 20260906014341 | 39 | 281 | 0.0 | 0.0 | 0.00 | 0.01 | 0.00 | 90 | 1019.3 |
| 20260906013841 | 39 | 281 | 0.0 | 0.0 | 0.00 | 0.01 | 0.00 | 90 | 1019.3 |
| 20260906013729 | 39 | 281 | 0.0 | 0.0 | 0.00 | 0.01 | 0.00 | 90 | 1019.3 |
| 20260906013542 | 39 | 281 | 0.0 | 0.0 | 0.00 | 0.01 | 0.00 | 90 | 1019.3 |
| 20260906013341 | 39 | 281 | 0.0 | 0.0 | 0.00 | 0.01 | 0.00 | 90 | 1019.3 |
| 20260906012841 | 39 | 281 | 0.0 | 0.0 | 0.00 | 0.01 | 0.00 | 90 | 1019.2 |
| 20260906012442 | 39 | 281 | 0.0 | 0.0 | 0.00 | 0.01 | 0.00 | 91 | 1019.2 |
| 20260906012341 | 39 | 281 | 0.0 | 0.0 | 0.00 | 0.01 | 0.00 | 91 | 1019.2 |
| 20260906011841 | 39 | 281 | 0.0 | 2.0 | 0.00 | 0.01 | 0.00 | 91 | 1019.2 |
| 20260906011341 | 39 | 223 | 0.0 | 0.0 | 0.00 | 0.01 | 0.00 | 91 | 1019.1 |
| 20260906010841 | 39 | 223 | 0.0 | 0.0 | 0.00 | 0.01 | 0.00 | 91 | 1019.0 |
| 20260906010341 | 39 | 223 | 0.0 | 0.0 | 0.00 | 0.01 | 0.00 | 91 | 1019.0 |
| 20260906010242 | 39 | 223 | 0.0 | 0.0 | 0.00 | 0.01 | 0.00 | 90 | 1019.0 |
| 20260906005841 | 39 | 223 | 0.0 | 0.0 | 0.00 | 0.01 | 0.00 | 90 | 1019.0 |
| 20260906005341 | 39 | 223 | 0.0 | 0.0 | 0.00 | 0.01 | 0.00 | 90 | 1018.9 |
| 20260906005142 | 39 | 223 | 0.0 | 0.0 | 0.00 | 0.01 | 0.00 | 90 | 1018.9 |
| 20260906004841 | 39 | 223 | 0.0 | 0.0 | 0.00 | 0.01 | 0.00 | 89 | 1018.9 |
| 20260906004341 | 39 | 223 | 0.0 | 0.0 | 0.00 | 0.01 | 0.00 | 89 | 1018.9 |
| 20260906004042 | 39 | 223 | 0.0 | 0.0 | 0.00 | 0.01 | 0.00 | 89 | 1018.9 |
| 20260906003841 | 39 | 223 | 0.0 | 0.0 | 0.00 | 0.01 | 0.00 | 89 | 1018.7 |
| 20260906003341 | 40 | 223 | 0.0 | 0.0 | 0.00 | 0.01 | 0.00 | 89 | 1018.6 |
| 20260906002942 | 40 | 223 | 0.0 | 0.0 | 0.00 | 0.01 | 0.00 | 89 | 1018.6 |
| 20260906002841 | 40 | 223 | 0.0 | 0.0 | 0.00 | 0.01 | 0.00 | 89 | 1018.6 |
| 20260906002341 | 40 | 223 | 0.0 | 0.0 | 0.00 | 0.01 | 0.00 | 89 | 1018.6 |
| 20260906001841 | 40 | 223 | 0.0 | 0.0 | 0.00 | 0.01 | 0.00 | 89 | 1018.5 |
| 20260906001341 | 40 | 223 | 0.0 | 0.0 | 0.00 | 0.01 | 0.00 | 89 | 1018.4 |
| 20260906000841 | 40 | 223 | 0.0 | 0.0 | 0.00 | 0.01 | 0.00 | 89 | 1018.4 |
| 20260906000742 | 40 | 223 | 0.0 | 0.0 | 0.00 | 0.01 | 0.00 | 89 | 1018.4 |
| 20260906000341 | 40 | 223 | 0.0 | 0.0 | 0.00 | 0.01 | 0.00 | 89 | 1018.4 |
| 20260905235841 | 40 | 223 | 0.0 | 0.0 | 0.00 | 0.01 | 0.00 | 89 | 1018.3 |
| 20260905235642 | 40 | 223 | 0.0 | 1.0 | 0.00 | 0.01 | 0.00 | 89 | 1018.3 |
| 20260905235341 | 40 | 223 | 0.0 | 1.0 | 0.00 | 0.01 | 0.00 | 89 | 1018.3 |
| 20260905234841 | 40 | 300 | 0.0 | 0.0 | 0.00 | 0.01 | 0.00 | 88 | 1018.3 |
| 20260905234542 | 40 | 300 | 0.0 | 0.0 | 0.00 | 0.01 | 0.00 | 88 | 1018.2 |
| 20260905234341 | 41 | 300 | 0.0 | 0.0 | 0.00 | 0.01 | 0.00 | 88 | 1018.2 |
| 20260905233841 | 41 | 300 | 0.0 | 1.0 | 0.00 | 0.01 | 0.00 | 89 | 1018.2 |
| 20260905233444 | 41 | 284 | 1.0 | 2.0 | 0.00 | 0.01 | 0.00 | 89 | 1018.1 |
| 20260905233341 | 41 | 341 | 0.0 | 2.0 | 0.00 | 0.01 | 0.00 | 89 | 1018.1 |
| 20260905232841 | 40 | 233 | 0.0 | 1.0 | 0.00 | 0.01 | 0.00 | 89 | 1018.1 |
| 20260905232341 | 40 | 102 | 0.0 | 0.0 | 0.00 | 0.01 | 0.00 | 88 | 1018.1 |
| 20260905231841 | 41 | 102 | 0.0 | 1.0 | 0.00 | 0.01 | 0.00 | 88 | 1017.8 |
| 20260905231341 | 41 | 295 | 0.0 | 3.0 | 0.00 | 0.01 | 0.00 | 87 | 1017.7 |
| 20260905231242 | 41 | 295 | 0.0 | 3.0 | 0.00 | 0.01 | 0.00 | 88 | 1017.8 |
| 20260905230841 | 41 | 261 | 0.0 | 2.0 | 0.00 | 0.01 | 0.00 | 88 | 1017.7 |
| 20260905230341 | 41 | 285 | 1.0 | 2.0 | 0.00 | 0.01 | 0.00 | 88 | 1017.7 |
| 20260905230142 | 41 | 253 | 0.0 | 2.0 | 0.00 | 0.01 | 0.00 | 88 | 1017.6 |
| 20260905225841 | 41 | 202 | 0.0 | 1.0 | 0.00 | 0.01 | 0.00 | 89 | 1017.5 |
| 20260905225341 | 41 | 299 | 0.0 | 2.0 | 0.00 | 0.01 | 0.00 | 90 | 1017.5 |
| 20260905225042 | 41 | 302 | 0.0 | 3.0 | 0.00 | 0.01 | 0.00 | 90 | 1017.4 |
| 20260905224841 | 41 | 329 | 0.0 | 3.0 | 0.00 | 0.01 | 0.00 | 91 | 1017.4 |
| 20260905224341 | 40 | 289 | 0.0 | 3.0 | 0.00 | 0.01 | 0.00 | 91 | 1017.4 |
| 20260905223942 | 40 | 126 | 0.0 | 0.0 | 0.00 | 0.01 | 0.00 | 90 | 1017.4 |
| 20260905223841 | 40 | 126 | 0.0 | 0.0 | 0.00 | 0.01 | 0.00 | 90 | 1017.5 |
| 20260905223341 | 40 | 126 | 0.0 | 0.0 | 0.00 | 0.01 | 0.00 | 90 | 1017.4 |
| 20260905222841 | 40 | 126 | 0.0 | 0.0 | 0.00 | 0.01 | 0.00 | 89 | 1017.3 |
| 20260905222341 | 40 | 126 | 0.0 | 0.0 | 0.00 | 0.01 | 0.00 | 89 | 1017.2 |
| 20260905221841 | 39 | 126 | 0.0 | 0.0 | 0.00 | 0.01 | 0.00 | 89 | 1017.2 |
| 20260905221742 | 39 | 126 | 0.0 | 0.0 | 0.00 | 0.01 | 0.00 | 89 | 1017.2 |
| 20260905221341 | 40 | 126 | 0.0 | 0.0 | 0.00 | 0.01 | 0.00 | 89 | 1017.1 |
| 20260905220841 | 40 | 126 | 0.0 | 1.0 | 0.00 | 0.01 | 0.00 | 88 | 1017.1 |
| 20260905220642 | 40 | 126 | 0.0 | 3.0 | 0.00 | 0.01 | 0.00 | 88 | 1016.9 |
| 20260905220341 | 40 | 132 | 1.0 | 3.0 | 0.00 | 0.01 | 0.00 | 88 | 1016.9 |
| 20260905215841 | 40 | 102 | 2.0 | 3.0 | 0.00 | 0.01 | 0.00 | 88 | 1016.8 |
| 20260905215542 | 40 | 11 | 0.0 | 0.0 | 0.00 | 0.01 | 0.00 | 88 | 1016.7 |
| 20260905215341 | 40 | 11 | 0.0 | 0.0 | 0.00 | 0.01 | 0.00 | 87 | 1016.7 |
| 20260905214841 | 40 | 11 | 0.0 | 0.0 | 0.00 | 0.01 | 0.01 | 87 | 1016.6 |
| 20260905214442 | 40 | 11 | 0.0 | 0.0 | 0.00 | 0.01 | 0.01 | 87 | 1016.5 |
| 20260905214341 | 40 | 11 | 0.0 | 0.0 | 0.00 | 0.01 | 0.01 | 87 | 1016.5 |
| 20260905213841 | 41 | 11 | 0.0 | 2.0 | 0.00 | 0.01 | 0.01 | 87 | 1016.5 |
| 20260905213341 | 41 | 261 | 0.0 | 0.0 | 0.00 | 0.01 | 0.01 | 87 | 1016.5 |
| 20260905212841 | 41 | 261 | 0.0 | 0.0 | 0.00 | 0.01 | 0.01 | 86 | 1016.4 |
| 20260905212341 | 41 | 261 | 0.0 | 0.0 | 0.00 | 0.01 | 0.01 | 86 | 1016.4 |
| 20260905212242 | 41 | 261 | 0.0 | 0.0 | 0.00 | 0.01 | 0.01 | 86 | 1016.4 |
| 20260905211841 | 41 | 261 | 0.0 | 0.0 | 0.00 | 0.01 | 0.01 | 86 | 1016.3 |
| 20260905211341 | 42 | 261 | 0.0 | 0.0 | 0.00 | 0.01 | 0.01 | 85 | 1016.2 |
| 20260905211142 | 42 | 261 | 0.0 | 0.0 | 0.00 | 0.01 | 0.01 | 85 | 1016.2 |
| 20260905210841 | 42 | 261 | 0.0 | 0.0 | 0.00 | 0.01 | 0.01 | 85 | 1016.2 |
| 20260905210341 | 42 | 261 | 0.0 | 0.0 | 0.00 | 0.01 | 0.01 | 85 | 1016.2 |
| 20260905210042 | 42 | 261 | 0.0 | 0.0 | 0.00 | 0.01 | 0.01 | 86 | 1016.1 |
| 20260905205841 | 42 | 261 | 0.0 | 2.0 | 0.00 | 0.01 | 0.01 | 87 | 1016.1 |
| 20260905205341 | 41 | 326 | 1.0 | 4.0 | 0.00 | 0.01 | 0.01 | 88 | 1015.9 |
| 20260905204944 | 41 | 336 | 0.0 | 1.0 | 0.00 | 0.01 | 0.01 | 86 | 1015.9 |
| 20260905204841 | 41 | 336 | 0.0 | 1.0 | 0.00 | 0.01 | 0.01 | 86 | 1015.8 |
| 20260905204341 | 41 | 85 | 0.0 | 2.0 | 0.00 | 0.01 | 0.01 | 86 | 1015.7 |
| 20260905203841 | 41 | 91 | 0.0 | 0.0 | 0.00 | 0.01 | 0.01 | 85 | 1015.7 |
| 20260905203341 | 42 | 91 | 0.0 | 0.0 | 0.00 | 0.01 | 0.01 | 85 | 1015.7 |
| 20260905202841 | 42 | 91 | 0.0 | 1.0 | 0.00 | 0.01 | 0.01 | 85 | 1015.6 |
| 20260905202742 | 42 | 91 | 0.0 | 2.0 | 0.00 | 0.01 | 0.01 | 85 | 1015.6 |
| 20260905202341 | 42 | 108 | 1.0 | 3.0 | 0.00 | 0.01 | 0.01 | 84 | 1015.6 |
| 20260905201841 | 42 | 125 | 1.0 | 1.0 | 0.00 | 0.01 | 0.01 | 84 | 1015.5 |
| 20260905201642 | 42 | 125 | 0.0 | 2.0 | 0.00 | 0.01 | 0.01 | 84 | 1015.5 |
| 20260905201341 | 43 | 113 | 0.0 | 2.0 | 0.00 | 0.01 | 0.01 | 83 | 1015.4 |
| 20260905200841 | 43 | 123 | 1.0 | 2.0 | 0.00 | 0.01 | 0.01 | 82 | 1015.3 |
| 20260905200542 | 43 | 98 | 1.0 | 2.0 | 0.00 | 0.01 | 0.01 | 82 | 1015.3 |
| 20260905200341 | 44 | 137 | 1.0 | 2.0 | 0.00 | 0.01 | 0.01 | 81 | 1015.3 |
| 20260905195841 | 44 | 120 | 1.0 | 1.0 | 0.00 | 0.01 | 0.01 | 81 | 1015.3 |
| 20260905195442 | 44 | 340 | 0.0 | 0.0 | 0.00 | 0.01 | 0.01 | 80 | 1015.2 |
| 20260905195341 | 44 | 340 | 0.0 | 0.0 | 0.00 | 0.01 | 0.01 | 79 | 1015.2 |
| 20260905194841 | 45 | 340 | 0.0 | 2.0 | 0.00 | 0.01 | 0.01 | 79 | 1015.0 |
| 20260905194341 | 45 | 350 | 2.0 | 2.0 | 0.00 | 0.01 | 0.01 | 79 | 1014.9 |
| 20260905193841 | 45 | 327 | 0.0 | 4.0 | 0.00 | 0.01 | 0.01 | 79 | 1014.8 |
| 20260905193341 | 45 | 326 | 0.0 | 3.0 | 0.00 | 0.01 | 0.01 | 79 | 1014.8 |
| 20260905193242 | 45 | 337 | 0.0 | 3.0 | 0.00 | 0.01 | 0.01 | 80 | 1014.8 |
| 20260905192841 | 45 | 15 | 0.0 | 0.0 | 0.00 | 0.01 | 0.01 | 80 | 1014.8 |
| 20260905192341 | 46 | 15 | 0.0 | 3.0 | 0.00 | 0.01 | 0.01 | 79 | 1014.7 |
| 20260905192142 | 46 | 54 | 0.0 | 3.0 | 0.00 | 0.01 | 0.01 | 79 | 1014.7 |
| 20260905191841 | 46 | 18 | 0.0 | 1.0 | 0.00 | 0.01 | 0.01 | 79 | 1014.6 |
| 20260905191341 | 46 | 323 | 0.0 | 0.0 | 0.00 | 0.01 | 0.01 | 78 | 1014.6 |
| 20260905191042 | 46 | 323 | 0.0 | 0.0 | 0.00 | 0.01 | 0.01 | 78 | 1014.4 |
| 20260905190841 | 47 | 323 | 0.0 | 0.0 | 0.00 | 0.01 | 0.01 | 78 | 1014.4 |
| 20260905190341 | 47 | 323 | 0.0 | 1.0 | 0.00 | 0.01 | 0.01 | 77 | 1014.4 |
| 20260905185942 | 47 | 7 | 0.0 | 0.0 | 0.00 | 0.01 | 0.01 | 76 | 1014.4 |
| 20260905185841 | 47 | 7 | 0.0 | 0.0 | 0.00 | 0.01 | 0.01 | 76 | 1014.4 |
| 20260905185341 | 47 | 7 | 0.0 | 3.0 | 0.00 | 0.01 | 0.01 | 75 | 1014.4 |
| 20260905184841 | 47 | 319 | 0.0 | 2.0 | 0.00 | 0.01 | 0.01 | 74 | 1014.3 |
| 20260905184341 | 47 | 351 | 0.0 | 5.0 | 0.00 | 0.01 | 0.01 | 74 | 1014.3 |
| 20260905183841 | 47 | 305 | 1.0 | 3.0 | 0.00 | 0.01 | 0.01 | 74 | 1014.0 |
| 20260905183742 | 47 | 331 | 1.0 | 3.0 | 0.00 | 0.01 | 0.01 | 74 | 1014.0 |
| 20260905183341 | 47 | 329 | 1.0 | 2.0 | 0.00 | 0.01 | 0.01 | 77 | 1013.8 |
| 20260905182841 | 47 | 1 | 0.0 | 1.0 | 0.00 | 0.01 | 0.01 | 77 | 1013.7 |
| 20260905182642 | 47 | 307 | 0.0 | 0.0 | 0.00 | 0.01 | 0.01 | 77 | 1013.7 |
| 20260905182341 | 47 | 36 | 0.0 | 0.0 | 0.00 | 0.01 | 0.01 | 78 | 1013.6 |
| 20260905181841 | 48 | 36 | 0.0 | 0.0 | 0.00 | 0.01 | 0.01 | 78 | 1013.5 |
| 20260905181542 | 48 | 36 | 0.0 | 0.0 | 0.00 | 0.01 | 0.01 | 79 | 1013.4 |
| 20260905181341 | 48 | 36 | 0.0 | 0.0 | 0.00 | 0.01 | 0.01 | 79 | 1013.3 |
| 20260905180841 | 48 | 36 | 0.0 | 0.0 | 0.00 | 0.01 | 0.01 | 79 | 1013.3 |
| 20260905180442 | 48 | 36 | 0.0 | 0.0 | 0.00 | 0.01 | 0.01 | 79 | 1013.3 |
| 20260905180341 | 48 | 36 | 0.0 | 0.0 | 0.00 | 0.01 | 0.01 | 79 | 1013.1 |
| 20260905175841 | 48 | 36 | 0.0 | 0.0 | 0.00 | 0.01 | 0.01 | 79 | 1013.1 |
| 20260905175341 | 49 | 36 | 0.0 | 0.0 | 0.00 | 0.01 | 0.01 | 78 | 1012.9 |
| 20260905174841 | 49 | 36 | 0.0 | 0.0 | 0.00 | 0.01 | 0.01 | 77 | 1012.9 |
| 20260905174341 | 49 | 36 | 0.0 | 0.0 | 0.00 | 0.01 | 0.01 | 76 | 1012.7 |
| 20260905174242 | 49 | 36 | 0.0 | 0.0 | 0.00 | 0.01 | 0.01 | 76 | 1012.8 |
| 20260905173841 | 49 | 36 | 0.0 | 1.0 | 0.00 | 0.01 | 0.01 | 74 | 1012.7 |
| 20260905173341 | 49 | 1 | 0.0 | 1.0 | 0.01 | 0.01 | 0.01 | 70 | 1012.6 |
| 20260905173142 | 49 | 52 | 0.0 | 1.0 | 0.01 | 0.01 | 0.01 | 75 | 1012.5 |
| 20260905172841 | 49 | 338 | 0.0 | 0.0 | 0.01 | 0.01 | 0.01 | 76 | 1012.5 |
| 20260905172341 | 49 | 338 | 0.0 | 0.0 | 0.01 | 0.01 | 0.01 | 75 | 1012.4 |
| 20260905172043 | 49 | 338 | 0.0 | 0.0 | 0.01 | 0.01 | 0.01 | 74 | 1012.4 |
| 20260905171841 | 49 | 338 | 0.0 | 0.0 | 0.01 | 0.01 | 0.01 | 74 | 1012.2 |
| 20260905171341 | 49 | 338 | 0.0 | 0.0 | 0.01 | 0.01 | 0.01 | 74 | 1012.2 |
| 20260905170942 | 49 | 338 | 0.0 | 0.0 | 0.01 | 0.01 | 0.01 | 73 | 1012.1 |
| 20260905170841 | 49 | 338 | 0.0 | 2.0 | 0.01 | 0.01 | 0.01 | 72 | 1012.0 |
| 20260905170341 | 50 | 37 | 0.0 | 1.0 | 0.01 | 0.01 | 0.01 | 72 | 1011.9 |
| 20260905165841 | 50 | 43 | 0.0 | 3.0 | 0.01 | 0.01 | 0.01 | 72 | 1011.9 |
| 20260905165341 | 49 | 52 | 0.0 | 1.0 | 0.01 | 0.01 | 0.01 | 71 | 1011.9 |
| 20260905164841 | 49 | 334 | 0.0 | 0.0 | 0.01 | 0.01 | 0.01 | 71 | 1011.8 |
| 20260905164743 | 49 | 334 | 0.0 | 0.0 | 0.01 | 0.01 | 0.01 | 71 | 1011.9 |
| 20260905164341 | 49 | 334 | 0.0 | 2.0 | 0.01 | 0.01 | 0.01 | 70 | 1011.8 |
| 20260905163841 | 49 | 343 | 0.0 | 6.0 | 0.01 | 0.01 | 0.01 | 69 | 1011.9 |
| 20260905163643 | 50 | 320 | 4.0 | 5.0 | 0.01 | 0.01 | 0.01 | 68 | 1011.9 |
| 20260905163341 | 50 | 315 | 0.0 | 5.0 | 0.00 | 0.00 | 0.00 | 66 | 1011.9 |
| 20260905162842 | 51 | 306 | 4.0 | 4.0 | 0.00 | 0.00 | 0.00 | 63 | 1011.7 |
| 20260905162543 | 51 | 2 | 0.0 | 2.0 | 0.00 | 0.00 | 0.00 | 62 | 1011.6 |
| 20260905162342 | 51 | 19 | 2.0 | 2.0 | 0.00 | 0.00 | 0.00 | 62 | 1011.5 |
| 20260905161842 | 51 | 12 | 0.0 | 1.0 | 0.00 | 0.00 | 0.00 | 60 | 1011.2 |
| 20260905161443 | 52 | 45 | 0.0 | 0.0 | 0.00 | 0.00 | 0.00 | 59 | 1011.2 |
| 20260905161342 | 52 | 45 | 0.0 | 0.0 | 0.00 | 0.00 | 0.00 | 59 | 1011.1 |
| 20260905160842 | 52 | 45 | 0.0 | 0.0 | 0.00 | 0.00 | 0.00 | 57 | 1010.9 |
| 20260905160342 | 52 | 45 | 0.0 | 2.0 | 0.00 | 0.00 | 0.00 | 57 | 1010.8 |
| 20260905155842 | 52 | 49 | 0.0 | 2.0 | 0.00 | 0.00 | 0.00 | 58 | 1010.8 |
| 20260905155342 | 52 | 21 | 0.0 | 3.0 | 0.00 | 0.00 | 0.00 | 58 | 1010.7 |
| 20260905155243 | 52 | 21 | 0.0 | 3.0 | 0.00 | 0.00 | 0.00 | 57 | 1010.7 |
| 20260905154842 | 52 | 12 | 0.0 | 5.0 | 0.00 | 0.00 | 0.00 | 59 | 1010.6 |
| 20260905154342 | 52 | 1 | 0.0 | 0.0 | 0.00 | 0.00 | 0.00 | 60 | 1010.4 |
| 20260905154143 | 52 | 1 | 0.0 | 0.0 | 0.00 | 0.00 | 0.00 | 59 | 1010.4 |
| 20260905153842 | 52 | 1 | 0.0 | 0.0 | 0.00 | 0.00 | 0.00 | 59 | 1010.4 |
| 20260905153342 | 52 | 1 | 0.0 | 2.0 | 0.00 | 0.00 | 0.00 | 58 | 1010.3 |
| 20260905153043 | 52 | 14 | 0.0 | 2.0 | 0.00 | 0.00 | 0.00 | 58 | 1010.3 |
| 20260905152842 | 52 | 303 | 0.0 | 1.0 | 0.00 | 0.00 | 0.00 | 57 | 1010.3 |
| 20260905152342 | 53 | 15 | 0.0 | 3.0 | 0.00 | 0.00 | 0.00 | 57 | 1010.3 |
| 20260905151943 | 53 | 15 | 0.0 | 6.0 | 0.00 | 0.00 | 0.00 | 56 | 1010.2 |
| 20260905151842 | 53 | 49 | 3.0 | 6.0 | 0.00 | 0.00 | 0.00 | 55 | 1010.2 |
| 20260905151342 | 54 | 35 | 0.0 | 6.0 | 0.00 | 0.00 | 0.00 | 54 | 1010.1 |
| 20260905150842 | 54 | 92 | 1.0 | 5.0 | 0.00 | 0.00 | 0.00 | 54 | 1010.0 |
| 20260905150342 | 55 | 338 | 0.0 | 1.0 | 0.00 | 0.00 | 0.00 | 50 | 1009.9 |
| 20260905145842 | 55 | 310 | 0.0 | 4.0 | 0.00 | 0.00 | 0.00 | 51 | 1009.8 |
| 20260905145743 | 55 | 310 | 0.0 | 4.0 | 0.00 | 0.00 | 0.00 | 51 | 1009.8 |
| 20260905145342 | 55 | 306 | 0.0 | 3.0 | 0.00 | 0.00 | 0.00 | 55 | 1009.8 |
| 20260905144842 | 54 | 322 | 0.0 | 1.0 | 0.00 | 0.00 | 0.00 | 57 | 1009.8 |
| 20260905144643 | 54 | 330 | 0.0 | 0.0 | 0.00 | 0.00 | 0.00 | 57 | 1009.7 |
| 20260905144342 | 54 | 330 | 0.0 | 2.0 | 0.00 | 0.00 | 0.00 | 57 | 1009.8 |
| 20260905143842 | 54 | 309 | 2.0 | 3.0 | 0.00 | 0.00 | 0.00 | 56 | 1009.7 |
| 20260905143543 | 54 | 315 | 0.0 | 2.0 | 0.00 | 0.00 | 0.00 | 56 | 1009.6 |
| 20260905143342 | 54 | 67 | 0.0 | 0.0 | 0.00 | 0.00 | 0.00 | 55 | 1009.7 |
| 20260905142842 | 55 | 67 | 0.0 | 1.0 | 0.00 | 0.00 | 0.00 | 57 | 1009.6 |
| 20260905142443 | 55 | 29 | 0.0 | 3.0 | 0.00 | 0.00 | 0.00 | 57 | 1009.6 |
| 20260905142342 | 54 | 316 | 0.0 | 3.0 | 0.00 | 0.00 | 0.00 | 58 | 1009.4 |
| 20260905141842 | 54 | 275 | 0.0 | 4.0 | 0.00 | 0.00 | 0.00 | 59 | 1009.4 |
| 20260905141342 | 54 | 292 | 0.0 | 1.0 | 0.00 | 0.00 | 0.00 | 60 | 1009.3 |
| 20260905140842 | 54 | 302 | 0.0 | 0.0 | 0.00 | 0.00 | 0.00 | 61 | 1009.2 |
| 20260905140342 | 54 | 302 | 0.0 | 2.0 | 0.00 | 0.00 | 0.00 | 59 | 1009.2 |
| 20260905140243 | 55 | 302 | 0.0 | 2.0 | 0.00 | 0.00 | 0.00 | 58 | 1009.2 |
| 20260905135842 | 55 | 309 | 1.0 | 3.0 | 0.00 | 0.00 | 0.00 | 55 | 1009.1 |
| 20260905135342 | 55 | 354 | 0.0 | 7.0 | 0.00 | 0.00 | 0.00 | 58 | 1009.0 |
| 20260905135143 | 55 | 354 | 0.0 | 7.0 | 0.00 | 0.00 | 0.00 | 58 | 1009.0 |
| 20260905134842 | 55 | 334 | 1.0 | 4.0 | 0.00 | 0.00 | 0.00 | 60 | 1009.0 |
| 20260905134342 | 54 | 281 | 0.0 | 5.0 | 0.00 | 0.00 | 0.00 | 62 | 1008.9 |
| 20260905134043 | 53 | 319 | 0.0 | 4.0 | 0.00 | 0.00 | 0.00 | 63 | 1008.8 |
| 20260905133842 | 53 | 319 | 0.0 | 4.0 | 0.00 | 0.00 | 0.00 | 62 | 1008.9 |
| 20260905133342 | 52 | 295 | 0.0 | 7.0 | 0.00 | 0.00 | 0.00 | 61 | 1008.9 |
| 20260905132943 | 53 | 322 | 5.0 | 7.0 | 0.00 | 0.00 | 0.00 | 59 | 1008.8 |
| 20260905132842 | 53 | 317 | 4.0 | 7.0 | 0.00 | 0.00 | 0.00 | 59 | 1008.8 |
| 20260905132342 | 53 | 352 | 0.0 | 6.0 | 0.00 | 0.00 | 0.00 | 62 | 1008.7 |